941  
ASUS43 KLMK 211810  
RWRKY  
KENTUCKY REGIONAL WEATHER ROUNDUP  
NATIONAL WEATHER SERVICE LOUISVILLE KY  
200 PM EDT TUE OCT 21 2014  
 
NOTE "FAIR" INDICATES FEW OR NO CLOUDS BELOW 12,000 FEET  
WITH NO SIGNIFICANT WEATHER AND/OR S TO VISIBILITY
.  
 
KYZ001>023-026-027-061>063-070>075-211900-  
WESTERN AND SOUTH CENTRAL KENTUCKY  
 
CITY SKY/WX TMP DP RH WIND PRES REMARKS
 
PADUCAH SUNNY 70 47 43 VRB6 30.07F  
HENDERSON MOSUNNY N/A N/A N/A N9 30.08F  
OWENSBORO MOSUNNY 64 44 48 N12 30.08F  
HOPKINSVILLE SUNNY 69 46 44 NW10 30.05F  
BOWLING GREEN MOSUNNY 67 48 50 N5 30.06F  
GLASGOW MOSUNNY 66 43 42 N6 30.05F  

 
 
KYZ024-025-028>034-038-045-046-053-211900-  
NORTH CENTRAL KENTUCKY  
 
CITY SKY/WX TMP DP RH WIND PRES REMARKS
 
LOUISVILLE/SDF PTSUNNY 60 42 51 N8G16 30.06F  
LOUISVILLE/LOU PTSUNNY 60 41 49 NW9G17 30.07F  
FORT KNOX LGT RAIN 59 45 58 NW8 30.06F  

 
 
KYZ035>037-039>044-047>052-055>060-089>105-211900-  
NORTHEAST KENTUCKY  
 
CITY SKY/WX TMP DP RH WIND PRES REMARKS
 
LEXINGTON CLOUDY 58 41 53 NW12 30.05S  
COVINGTON PTSUNNY 56 37 49 N14G22 30.04S  
FRANKFORT CLOUDY 57 39 51 NW13G22 30.05F  

 
 
KYZ054-064>069-076>088-106>120-211900-  
SOUTHEAST KENTUCKY  
 
CITY SKY/WX TMP DP RH WIND PRES REMARKS
 
JACKSON CLOUDY 54 38 54 NW8G16 30.01F  
LONDON CLOUDY 59 42 53 NW13 30.04S  
SOMERSET CLOUDY 59 43 55 N9 30.05F  
MIDDLESBORO CLOUDY 62 43 49 NW12G17 30.02F  
MONTICELLO MOCLDY 64 45 50 N8 30.06F  

 
 
CLICK HERE TO GO TO PREVIOUS BULLETINS.

The Nexlab KY Page Main Text Page